Regional Weather Roundup
Issued by NWS Sioux Falls, SD

Home | Current Version | Previous Version | Text Only | Print | Product List | Glossary On
Versions: 1 2 3 4 5 6 7 8 9 10 11 12 13 14 15 16 17 18 19 20 21 22 23 24 25 26 27 28 29 30 31 32 33 34 35 36 37 38 39 40 41 42 43 44 45 46 47 48 49 50
524
ASUS43 KFSD 101010
RWRFSD

WEATHER ROUNDUP FOR SE SOUTH DAKOTA/SW MINNESOTA/NW IOWA
NATIONAL WEATHER SERVICE SIOUX FALLS SD
400 AM CST SAT DEC 10 2016

NOTE: "FAIR" INDICATES FEW OR NO CLOUDS BELOW 12,000 FEET WITH NO
SIGNIFICANT WEATHER AND OR OBSTRUCTIONS TO VISIBILITY.


SDZ038>040-050-052>070-101100-
SOUTHEAST SOUTH DAKOTA

CITY           SKY/WX    TMP DP  RH WIND       PRES   REMARKS
BROOKINGS      CLOUDY     3  -3  76 E5        30.43F WCI  -6
CHAMBERLAIN    CLOUDY     5   1  85 E5        30.40F WCI  -4
HURON          CLOUDY    -1  -4  87 N3        30.48F
MADISON        PTSUNNY    5   1  85 NE6       30.42F WCI  -6
MITCHELL       CLOUDY     7   2  80 NE9       30.46F WCI  -7
SIOUX FALLS    CLOUDY    10   6  84 NE5       30.44F WCI   2
WINNER         LGT SNOW   6   1  80 E9        30.34F WCI  -8
YANKTON        CLOUDY    10   7  85 NW6       30.45S WCI   1
$$

MNZ071-072-080-081-089-090-097-098-101100-
SOUTHWEST MINNESOTA

CITY           SKY/WX    TMP DP  RH WIND       PRES   REMARKS
FAIRMONT       FLURRIES   7   2  80 N5        30.50S WCI  -2
JACKSON        CLOUDY     7   1  78 N5        30.47R WCI  -2
LUVERNE        FLURRIES  10   5  79 E3        30.46F
MARSHALL       CLOUDY     2  -2  83 N6        30.50F WCI  -9
MONTEVIDEO     CLEAR     -2  -8  78 CALM      30.54R
PIPESTONE      CLOUDY     7   1  78 E3        30.42F
REDWOOD FALLS  CLEAR      2  -3  80 N5        30.50F WCI  -8
TRACY          CLOUDY     5   2  87 N5        30.48S WCI  -4
WINDOM         CLOUDY     7   1  78 MISG      30.47R
WORTHINGTON    FLURRIES   6   2  83 NE7       30.45F WCI  -6
$$

IAZ001>003-012>014-020>022-031-032-NEZ013-014-SDZ071-101100-
NORTHWEST IOWA

CITY           SKY/WX    TMP DP  RH WIND       PRES   REMARKS
CHEROKEE       FLURRIES  17  14  88 CALM      30.46F
DENISON        CLOUDY    21  14  73 CALM      30.44F
ESTHERVILLE    CLOUDY     8   5  87 N6        30.48R WCI  -2
LE MARS        MOCLDY    16  14  93 CALM      30.47F
ORANGE CITY    FLURRIES  16  12  86 CALM      30.44F
SHELDON        CLOUDY    10   9  92 E6        30.44S WCI   1
SIOUX CITY     FLURRIES  20  12  71 E3        30.47F
SPENCER        CLOUDY    11   7  84 NE7       30.47S FOG     WCI   0
STORM LAKE     CLOUDY    18  12  79 CALM      30.45S
$$

ABBREVIATIONS USED IN REMARKS
   TC - TEMPERATURE IN CELSIUS
  WCI - WIND CHILL INDEX
   HX - HEAT INDEX
  VSB - VISIBILITY





USA.gov is the U.S. government's official web portal to all federal, state and local government web resources and services.